Location: Unspecified
(0.0000°N, 0.0000°E)
Time: 22:58:30
(UTC+00:00)

Tiros 1 - Visible Passes

Search period start: 12 December 2018 00:00
Search period end: 22 December 2018 00:00
Orbit: 631 x 664 km, 48.4° (Epoch: 12 December)

Date Brightness Start Highest point End Pass type
(mag) Time Alt. Az. Time Alt. Az. Time Alt. Az.
12 Dec 9.5 20:07:39 10° S 20:08:49 16° S 20:08:49 16° S visible
13 Dec 9.7 20:32:58 10° SW 20:34:09 18° SW 20:34:09 18° SW visible
14 Dec 8.5 19:17:54 10° S 19:21:39 24° SE 19:21:51 24° SE visible
15 Dec 7.1 19:43:03 10° SW 19:47:18 73° S 19:47:18 73° S visible
16 Dec 8.7 18:28:10 10° S 18:31:43 21° SE 18:35:07 10° E visible
16 Dec 8.9 20:09:44 10° WSW 20:12:50 26° WNW 20:12:50 26° WNW visible
17 Dec 7.1 18:53:08 10° SSW 18:57:48 72° SE 19:00:41 22° NE visible
18 Dec 9.9 05:27:32 10° NE 05:28:33 11° NE 05:29:36 10° ENE visible
18 Dec 8.5 19:19:40 10° WSW 19:23:49 32° NW 19:26:15 20° N visible
20 Dec 8.4 18:29:36 10° WSW 18:33:54 36° NW 18:38:09 10° NNE visible
21 Dec 8.7 05:00:37 10° N 05:04:45 30° NE 05:08:55 10° ESE visible
21 Dec 9.8 18:58:35 10° WNW 19:00:00 11° NW 19:01:25 10° NNW visible
